Location: Bouchavesnes-Bergen
(49.9859°N, 2.9203°E)
Time: 02:18:02
(UTC+00:00)

Cosmos 2082 Rocket - Pass Details

Date: 09 March 2021
Orbit: 834 x 853 km, 71.0° (Epoch: 16 April)

Event Time Altitude Azimuth Distance (km) Brightness Sun altitude
Exits shadow 02:42:08 33° 352° (N) 1,406 3.5 -33.0°
Drops below altitude 10° 02:45:42 10° 20° (NNE) 2,487 5.3 -32.5°
Sets 02:48:18 0° 27° (NNE) 3,424 6.3 -32.2°
